RÉSULTATS    Corrida Pédestre Internationale de Houilles - Édition du 30/12/2018


Vous pouvez changer la distance ici.

Vous pouvez changer la distance ici.

Classement PDF Général Classement PDF Alphabétique /results/<span class='glyphicon glyphicon-picture'></span> Classement Temps Officiel

381 participants - 340 Hommes - 41 Femmes
322 licenciés (85%) - 59 non-licenciés (15%)

Temps moyen : 00:34:45




Pos. Tps Réel Nom - Prénom Club Dossard Catégorie km/h Tps Officiel T1T2T3
1 00:27:25 WANDERS Julien SUISSE 1 SEM (1 / 196) 21.8 00:27:25 00:09:3200:09:0000:08:55
2 00:27:36 TSEGU Berehanu ETHIOPIE 5 ESM (1 / 35) 21.7 00:27:36 00:09:3200:09:0000:09:05
3 00:27:52 CHEMUTAI Albert OUGANDA 3 ESM (2 / 35) 21.5 00:27:53 00:09:3200:09:0900:09:13
4 00:27:57 ANDE Filmon ERYTHREE 8 ESM (3 / 35) 21.4 00:27:57 00:09:3200:09:0600:09:21
5 00:28:09 TEKLU Haftu ETHIOPIE 7 JUM (1 / 12) 21.3 00:28:10 00:09:4200:09:1700:09:12
6 00:28:09 KANGOGO Cornelius KENYA 2 SEM (2 / 196) 21.3 00:28:10 00:09:3700:09:1600:09:18
7 00:28:12 GRESSIER Jimmy US ATHLETIQUES DE LIEVIN* 32 ESM (4 / 35) 21.2 00:28:13 00:09:4200:09:1700:09:15
8 00:28:24 CARVALHO Florian ADIDAS RUNNERS PARIS 31 SEM (3 / 196) 21.1 00:28:25 00:09:4200:09:1700:09:26
9 00:28:30 KIFLE Yohans ERYTHREE 24 JUM (2 / 12) 21.0 00:28:31 00:09:4200:09:2500:09:24
10 00:28:38 KIPNGENO MIBEI Dominic KENYA 19 SEM (4 / 196) 20.9 00:28:39 00:09:3800:09:2600:09:36
11 00:28:43 TSEGAY Mehari ERYTHREE 9 ESM (5 / 35) 20.8 00:28:44 00:09:4300:09:2400:09:38
12 00:28:49 GRIFFITHS Dewi GRANDE BRETAGNE 18 SEM (5 / 196) 20.8 00:28:50 00:09:4300:09:2600:09:41
13 00:28:51 TRAYNOR Luke GRANDE BRETAGNE 17 SEM (6 / 196) 20.7 00:28:53 00:09:5400:09:2800:09:32
14 00:29:01 GIRMA Taye ETHIOPIE 4 JUM (3 / 12) 20.6 00:29:02 00:09:5300:09:4100:09:29
15 00:29:08 BEDRANI Djilali SA TOULOUSE UC 33 SEM (7 / 196) 20.6 00:29:08 00:09:5500:09:3900:09:35
16 00:29:15 CLEMENTS Kieran GRANDE BRETAGNE 15 SEM (8 / 196) 20.5 00:29:16 00:10:0000:09:3600:09:40
17 00:29:31 GRIFFITHS Josh GRANDE BRETAGNE 23 SEM (9 / 196) 20.3 00:29:32 00:10:0600:09:3900:09:47
18 00:29:41 BELHADJ Mehdi CA MONTREUIL 93 44 SEM (10 / 196) 20.2 00:29:42 00:10:0600:09:5000:09:47
19 00:29:45 BOUCHFAR Rahal MAROC 10 JUM (4 / 12) 20.1 00:29:45 00:10:0200:09:5500:09:50
20 00:29:52 DODE Sylvain FREE RUN A3 TOURS 153 SEM (11 / 196) 20.0 00:29:53 00:10:1200:09:5000:09:52
21 00:29:56 LE DEAN Geoffrey CA MONTREUIL 93 2510 SEM (12 / 196) 20.0 00:29:57 00:10:1400:09:4800:09:56
22 00:30:02 MISCHLER Baptiste UNITAS BRUMATH 37 ESM (6 / 35) 19.9 00:30:03 00:10:1400:09:5500:09:54
23 00:30:05 AUGUSTO Bastien KM42 367 ESM (7 / 35) 19.9 00:30:07 00:10:1400:09:5300:10:00
24 00:30:06 DAHMANI Samir MARTIGUES SPORTS ATHLE 41 SEM (13 / 196) 19.9 00:30:06 00:09:5700:10:1000:10:00
25 00:30:07 GHEBRESLASIE Merhawi S/L FRANCONVILLE 156 SEM (14 / 196) 19.9 00:30:08 00:10:1100:10:0400:09:54
    Page / 16 Dernière